Time,TemperatureF,DewpointF,PressureIn,WindDirection,WindDirectionDegrees,WindSpeedMPH,WindSpeedGustMPH,Humidity,HourlyPrecipIn,Conditions,Clouds,dailyrainin,SoftwareType,DateUTC
2013-04-24 00:01:00,51.9,50.8,30.13,WSW,238,0.0,0.0,96,0.00,,,0.00,VWS V14.00,2013-04-24 04:01:00,
2013-04-24 00:02:00,51.9,50.8,30.13,WSW,239,0.0,0.0,96,0.00,,,0.00,VWS V14.00,2013-04-24 04:02:00,
2013-04-24 00:03:00,51.8,50.7,30.13,WSW,238,0.0,0.0,96,0.00,,,0.00,VWS V14.00,2013-04-24 04:03:00,
2013-04-24 00:09:00,51.7,50.6,30.13,WSW,238,0.0,0.0,96,0.00,,,0.00,VWS V14.00,2013-04-24 04:09:00,
2013-04-24 00:14:00,51.6,50.5,30.13,WSW,238,0.0,0.0,96,0.00,,,0.00,VWS V14.00,2013-04-24 04:14:00,
2013-04-24 00:19:00,51.5,50.4,30.13,WSW,238,0.0,0.0,96,0.00,,,0.00,VWS V14.00,2013-04-24 04:19:00,
2013-04-24 00:24:00,51.4,50.3,30.13,WSW,239,0.0,0.0,96,0.00,,,0.00,VWS V14.00,2013-04-24 04:24:00,
2013-04-24 00:29:00,51.3,50.2,30.13,WSW,239,0.0,0.0,96,0.00,,,0.00,VWS V14.00,2013-04-24 04:29:00,
2013-04-24 00:34:00,51.2,50.1,30.13,WSW,239,0.0,0.0,96,0.00,,,0.00,VWS V14.00,2013-04-24 04:34:00,
2013-04-24 00:40:00,51.2,50.1,30.13,WSW,238,0.0,0.0,96,0.00,,,0.00,VWS V14.00,2013-04-24 04:40:00,
2013-04-24 00:45:00,51.1,50.0,30.13,WSW,238,0.0,0.0,96,0.00,,,0.00,VWS V14.00,2013-04-24 04:45:00,
2013-04-24 00:50:00,51.0,49.9,30.13,WSW,238,0.0,0.0,96,0.00,,,0.00,VWS V14.00,2013-04-24 04:50:00,
2013-04-24 00:55:00,50.9,49.8,30.13,WSW,239,0.0,0.0,96,0.00,,,0.00,VWS V14.00,2013-04-24 04:55:00,
2013-04-24 01:00:00,50.9,49.8,30.13,WSW,239,0.0,0.0,96,0.00,,,0.00,VWS V14.00,2013-04-24 05:00:00,
2013-04-24 01:05:00,50.8,49.7,30.13,WSW,239,0.0,0.0,96,0.00,,,0.00,VWS V14.00,2013-04-24 05:05:00,
2013-04-24 01:10:00,50.7,49.6,30.12,WSW,239,0.0,0.0,96,0.00,,,0.00,VWS V14.00,2013-04-24 05:10:00,
2013-04-24 01:16:00,50.6,49.5,30.12,WSW,238,0.0,0.0,96,0.00,,,0.00,VWS V14.00,2013-04-24 05:16:00,
2013-04-24 01:21:00,50.5,49.4,30.12,WSW,239,0.0,0.0,96,0.00,,,0.00,VWS V14.00,2013-04-24 05:21:00,
2013-04-24 01:26:00,50.3,49.2,30.12,WSW,239,0.0,0.0,96,0.00,,,0.00,VWS V14.00,2013-04-24 05:26:00,
2013-04-24 01:31:00,50.2,49.1,30.12,WSW,239,0.0,0.0,96,0.00,,,0.00,VWS V14.00,2013-04-24 05:31:00,
2013-04-24 01:36:00,50.1,49.3,30.12,WSW,239,0.0,0.0,97,0.00,,,0.00,VWS V14.00,2013-04-24 05:36:00,
2013-04-24 01:41:00,50.1,49.0,30.12,WSW,238,0.0,0.0,96,0.00,,,0.00,VWS V14.00,2013-04-24 05:41:00,
2013-04-24 01:47:00,50.0,48.9,30.12,WSW,239,0.0,0.0,96,0.00,,,0.00,VWS V14.00,2013-04-24 05:47:00,
2013-04-24 01:52:00,49.9,49.1,30.12,WSW,239,0.0,0.0,97,0.00,,,0.00,VWS V14.00,2013-04-24 05:52:00,
2013-04-24 01:57:00,49.7,48.6,30.11,WSW,239,0.0,0.0,96,0.00,,,0.00,VWS V14.00,2013-04-24 05:57:00,
2013-04-24 02:02:00,49.6,48.8,30.11,WSW,239,0.0,0.0,97,0.00,,,0.00,VWS V14.00,2013-04-24 06:02:00,
2013-04-24 02:07:00,49.5,48.4,30.11,WSW,238,0.0,0.0,96,0.00,,,0.00,VWS V14.00,2013-04-24 06:07:00,
2013-04-24 02:12:00,49.4,48.3,30.11,WSW,239,0.0,0.0,96,0.00,,,0.00,VWS V14.00,2013-04-24 06:12:00,
2013-04-24 02:18:00,49.4,48.6,30.11,WSW,239,0.0,0.0,97,0.00,,,0.00,VWS V14.00,2013-04-24 06:18:00,
2013-04-24 02:23:00,49.3,48.5,30.11,WSW,239,0.0,0.0,97,0.00,,,0.00,VWS V14.00,2013-04-24 06:23:00,
2013-04-24 02:28:00,49.2,48.4,30.11,WSW,239,0.0,0.0,97,0.00,,,0.00,VWS V14.00,2013-04-24 06:28:00,
2013-04-24 02:33:00,49.2,48.4,30.11,WSW,239,0.0,0.0,97,0.00,,,0.00,VWS V14.00,2013-04-24 06:33:00,
2013-04-24 02:38:00,49.2,48.4,30.11,WSW,238,0.0,0.0,97,0.00,,,0.00,VWS V14.00,2013-04-24 06:38:00,
2013-04-24 02:42:00,49.1,48.3,30.11,WSW,239,0.0,0.0,97,0.00,,,0.00,VWS V14.00,2013-04-24 06:42:00,
2013-04-24 02:43:00,49.1,48.3,30.11,WSW,239,0.0,0.0,97,0.00,,,0.00,VWS V14.00,2013-04-24 06:43:00,
2013-04-24 02:49:00,49.1,48.3,30.11,WSW,239,0.0,0.0,97,0.00,,,0.00,VWS V14.00,2013-04-24 06:49:00,
2013-04-24 06:58:00,47.5,47.0,30.14,WSW,238,0.0,0.0,98,0.00,,,0.00,VWS V14.00,2013-04-24 10:58:00,
2013-04-24 07:03:00,47.6,47.1,30.14,WSW,239,0.0,0.0,98,0.00,,,0.00,VWS V14.00,2013-04-24 11:03:00,
2013-04-24 07:08:00,47.6,47.1,30.14,WSW,239,0.0,0.0,98,0.00,,,0.00,VWS V14.00,2013-04-24 11:08:00,
2013-04-24 07:14:00,47.7,47.2,30.14,WSW,239,0.0,0.0,98,0.00,,,0.00,VWS V14.00,2013-04-24 11:14:00,
2013-04-24 07:19:00,47.9,47.4,30.14,WSW,239,0.0,0.0,98,0.00,,,0.00,VWS V14.00,2013-04-24 11:19:00,
2013-04-24 07:24:00,48.1,47.6,30.14,WSW,238,0.0,0.0,98,0.00,,,0.00,VWS V14.00,2013-04-24 11:24:00,
2013-04-24 07:29:00,48.3,47.8,30.14,WSW,239,0.0,0.0,98,0.00,,,0.00,VWS V14.00,2013-04-24 11:29:00,
2013-04-24 07:34:00,48.5,48.0,30.14,WSW,239,0.0,0.0,98,0.00,,,0.00,VWS V14.00,2013-04-24 11:34:00,
2013-04-24 07:39:00,48.8,48.3,30.14,WSW,239,0.0,0.0,98,0.00,,,0.00,VWS V14.00,2013-04-24 11:39:00,
2013-04-24 07:45:00,49.1,48.6,30.14,WSW,239,0.0,0.0,98,0.00,,,0.00,VWS V14.00,2013-04-24 11:45:00,
2013-04-24 07:50:00,49.5,49.0,30.14,WSW,238,0.0,0.0,98,0.00,,,0.00,VWS V14.00,2013-04-24 11:50:00,
2013-04-24 07:55:00,50.1,49.8,30.14,WSW,238,0.0,0.0,99,0.00,,,0.00,VWS V14.00,2013-04-24 11:55:00,
2013-04-24 08:00:00,51.1,50.8,30.14,WSW,239,0.0,0.0,99,0.00,,,0.00,VWS V14.00,2013-04-24 12:00:00,
2013-04-24 08:05:00,52.7,52.4,30.15,WSW,238,0.0,0.0,99,0.00,,,0.00,VWS V14.00,2013-04-24 12:05:00,
2013-04-24 08:10:00,54.3,54.0,30.15,WSW,238,0.0,0.0,99,0.00,,,0.00,VWS V14.00,2013-04-24 12:10:00,
2013-04-24 08:16:00,55.1,54.8,30.15,WSW,238,0.0,0.0,99,0.00,,,0.00,VWS V14.00,2013-04-24 12:16:00,
2013-04-24 08:21:00,55.9,55.6,30.16,WSW,238,0.0,0.0,99,0.00,,,0.00,VWS V14.00,2013-04-24 12:21:00,
2013-04-24 08:26:00,57.7,57.4,30.16,WSW,239,0.0,0.0,99,0.00,,,0.00,VWS V14.00,2013-04-24 12:26:00,
2013-04-24 08:31:00,59.3,59.0,30.16,WSW,239,0.0,0.0,99,0.00,,,0.00,VWS V14.00,2013-04-24 12:31:00,
2013-04-24 08:36:00,60.7,60.4,30.16,WSW,238,0.0,0.0,99,0.00,,,0.00,VWS V14.00,2013-04-24 12:36:00,
2013-04-24 08:41:00,61.9,61.6,30.16,WSW,239,0.0,0.0,99,0.00,,,0.00,VWS V14.00,2013-04-24 12:41:00,
2013-04-24 08:46:00,62.8,61.9,30.16,WSW,239,0.0,0.0,97,0.00,,,0.00,VWS V14.00,2013-04-24 12:46:00,
2013-04-24 08:51:00,63.3,61.5,30.15,WSW,239,0.0,0.0,94,0.00,,,0.00,VWS V14.00,2013-04-24 12:51:00,
2013-04-24 08:57:00,64.2,61.8,30.15,WSW,238,0.0,1.0,92,0.00,,,0.00,VWS V14.00,2013-04-24 12:57:00,
2013-04-24 09:02:00,64.9,61.9,30.15,SE,144,0.0,0.0,90,0.00,,,0.00,VWS V14.00,2013-04-24 13:02:00,
2013-04-24 09:07:00,65.4,61.1,30.15,ESE,107,2.0,3.0,86,0.00,,,0.00,VWS V14.00,2013-04-24 13:07:00,
2013-04-24 09:12:00,66.0,61.0,30.15,East,94,3.0,3.0,84,0.00,,,0.00,VWS V14.00,2013-04-24 13:12:00,
2013-04-24 09:17:00,66.2,60.9,30.15,SE,126,1.0,3.0,83,0.00,,,0.00,VWS V14.00,2013-04-24 13:17:00,
2013-04-24 09:22:00,66.9,60.9,30.15,ESE,107,1.0,3.0,81,0.00,,,0.00,VWS V14.00,2013-04-24 13:22:00,
2013-04-24 09:28:00,67.3,60.6,30.15,SSW,202,2.0,3.0,79,0.00,,,0.00,VWS V14.00,2013-04-24 13:28:00,
2013-04-24 09:33:00,67.5,60.4,30.15,ESE,107,0.0,3.0,78,0.00,,,0.00,VWS V14.00,2013-04-24 13:33:00,
2013-04-24 09:38:00,67.9,60.8,30.15,South,187,0.0,4.0,78,0.00,,,0.00,VWS V14.00,2013-04-24 13:38:00,
2013-04-24 09:43:00,68.4,60.5,30.15,SE,124,2.0,4.0,76,0.00,,,0.00,VWS V14.00,2013-04-24 13:43:00,
2013-04-24 09:48:00,68.7,61.2,30.15,West,279,3.0,5.0,77,0.00,,,0.00,VWS V14.00,2013-04-24 13:48:00,
2013-04-24 09:53:00,69.0,61.5,30.15,WSW,245,0.0,4.0,77,0.00,,,0.00,VWS V14.00,2013-04-24 13:53:00,
2013-04-24 09:58:00,69.1,60.8,30.15,SSW,209,5.0,5.0,75,0.00,,,0.00,VWS V14.00,2013-04-24 13:58:00,
2013-04-24 10:04:00,69.4,60.8,30.14,SW,230,0.0,3.0,74,0.00,,,0.00,VWS V14.00,2013-04-24 14:04:00,
2013-04-24 10:09:00,69.9,60.5,30.14,SW,221,1.0,6.0,72,0.00,,,0.00,VWS V14.00,2013-04-24 14:09:00,
2013-04-24 10:14:00,70.2,61.9,30.14,WNW,283,1.0,3.0,75,0.00,,,0.00,VWS V14.00,2013-04-24 14:14:00,
2013-04-24 10:19:00,70.7,62.0,30.14,WNW,296,5.0,5.0,74,0.00,,,0.00,VWS V14.00,2013-04-24 14:19:00,
2013-04-24 10:24:00,70.3,60.5,30.14,WSW,257,2.0,4.0,71,0.00,,,0.00,VWS V14.00,2013-04-24 14:24:00,
2013-04-24 10:29:00,70.8,60.9,30.14,NW,320,2.0,4.0,71,0.00,,,0.00,VWS V14.00,2013-04-24 14:29:00,
2013-04-24 10:35:00,71.4,61.5,30.14,South,173,1.0,3.0,71,0.00,,,0.00,VWS V14.00,2013-04-24 14:35:00,
2013-04-24 10:40:00,71.4,61.1,30.14,SSW,210,2.0,6.0,70,0.00,,,0.00,VWS V14.00,2013-04-24 14:40:00,
2013-04-24 10:45:00,71.2,61.3,30.14,ESE,109,1.0,5.0,71,0.00,,,0.00,VWS V14.00,2013-04-24 14:45:00,
2013-04-24 10:50:00,71.4,61.1,30.14,East,88,2.0,5.0,70,0.00,,,0.00,VWS V14.00,2013-04-24 14:50:00,
2013-04-24 10:55:00,71.6,60.9,30.13,SW,227,2.0,4.0,69,0.00,,,0.00,VWS V14.00,2013-04-24 14:55:00,
2013-04-24 11:00:00,71.2,61.3,30.14,NW,313,0.0,11.0,71,0.00,,,0.00,VWS V14.00,2013-04-24 15:00:00,
2013-04-24 11:09:00,71.3,61.0,30.13,South,191,3.0,7.0,70,0.00,,,0.00,VWS V14.00,2013-04-24 15:09:00,
2013-04-24 11:14:00,71.1,62.0,30.14,WNW,293,2.0,3.0,73,0.00,,,0.00,VWS V14.00,2013-04-24 15:14:00,
2013-04-24 11:19:00,71.4,61.5,30.14,SW,234,0.0,6.0,71,0.00,,,0.00,VWS V14.00,2013-04-24 15:19:00,
2013-04-24 11:24:00,71.7,60.6,30.14,WNW,283,4.0,6.0,68,0.00,,,0.00,VWS V14.00,2013-04-24 15:24:00,
2013-04-24 11:30:00,71.5,62.0,30.14,WNW,291,4.0,6.0,72,0.00,,,0.00,VWS V14.00,2013-04-24 15:30:00,
2013-04-24 11:35:00,71.6,61.7,30.14,ENE,67,2.0,7.0,71,0.00,,,0.00,VWS V14.00,2013-04-24 15:35:00,
2013-04-24 11:40:00,71.9,61.2,30.14,NNW,333,0.0,9.0,69,0.00,,,0.00,VWS V14.00,2013-04-24 15:40:00,
2013-04-24 11:45:00,72.2,62.3,30.14,SW,223,6.0,10.0,71,0.00,,,0.00,VWS V14.00,2013-04-24 15:45:00,
2013-04-24 11:50:00,72.3,61.6,30.13,WSW,253,2.0,10.0,69,0.00,,,0.00,VWS V14.00,2013-04-24 15:50:00,
2013-04-24 11:55:00,72.3,62.4,30.13,SW,217,0.0,7.0,71,0.00,,,0.00,VWS V14.00,2013-04-24 15:55:00,
2013-04-24 12:01:00,72.9,62.1,30.13,NW,310,1.0,7.0,69,0.00,,,0.00,VWS V14.00,2013-04-24 16:01:00,
2013-04-24 12:06:00,72.4,61.7,30.12,East,92,5.0,9.0,69,0.00,,,0.00,VWS V14.00,2013-04-24 16:06:00,
2013-04-24 12:11:00,72.2,61.9,30.12,South,176,2.0,9.0,70,0.00,,,0.00,VWS V14.00,2013-04-24 16:11:00,
2013-04-24 12:16:00,72.3,61.6,30.12,WNW,292,0.0,8.0,69,0.00,,,0.00,VWS V14.00,2013-04-24 16:16:00,
2013-04-24 12:21:00,72.1,62.2,30.11,SE,144,1.0,2.0,71,0.00,,,0.00,VWS V14.00,2013-04-24 16:21:00,
2013-04-24 12:26:00,72.7,62.8,30.11,North,11,0.0,5.0,71,0.00,,,0.00,VWS V14.00,2013-04-24 16:26:00,
2013-04-24 12:32:00,73.2,62.4,30.11,NW,325,4.0,7.0,69,0.00,,,0.00,VWS V14.00,2013-04-24 16:32:00,
2013-04-24 12:37:00,72.8,61.2,30.11,West,262,2.0,7.0,67,0.00,,,0.00,VWS V14.00,2013-04-24 16:37:00,
2013-04-24 12:42:00,72.6,62.3,30.10,North,5,5.0,5.0,70,0.00,,,0.00,VWS V14.00,2013-04-24 16:42:00,
2013-04-24 12:47:00,72.8,62.0,30.10,NW,306,1.0,6.0,69,0.00,,,0.00,VWS V14.00,2013-04-24 16:47:00,
2013-04-24 12:52:00,73.0,62.2,30.10,SSW,208,4.0,6.0,69,0.00,,,0.00,VWS V14.00,2013-04-24 16:52:00,
2013-04-24 12:57:00,73.0,62.2,30.10,NW,317,5.0,10.0,69,0.00,,,0.00,VWS V14.00,2013-04-24 16:57:00,
2013-04-24 13:03:00,72.7,62.4,30.10,SSE,163,3.0,10.0,70,0.00,,,0.00,VWS V14.00,2013-04-24 17:03:00,
2013-04-24 13:08:00,72.7,61.5,30.10,NW,326,5.0,10.0,68,0.00,,,0.00,VWS V14.00,2013-04-24 17:08:00,
2013-04-24 13:13:00,72.7,62.8,30.10,NNW,334,6.0,6.0,71,0.00,,,0.00,VWS V14.00,2013-04-24 17:13:00,
2013-04-24 13:18:00,73.1,62.3,30.10,WNW,298,6.0,9.0,69,0.00,,,0.00,VWS V14.00,2013-04-24 17:18:00,
2013-04-24 13:23:00,73.3,63.7,30.09,West,268,1.0,4.0,72,0.00,,,0.00,VWS V14.00,2013-04-24 17:23:00,
2013-04-24 13:28:00,73.2,62.4,30.09,NNW,330,3.0,12.0,69,0.00,,,0.00,VWS V14.00,2013-04-24 17:28:00,
2013-04-24 13:34:00,73.4,63.4,30.09,SSW,205,4.0,10.0,71,0.00,,,0.00,VWS V14.00,2013-04-24 17:34:00,
2013-04-24 13:39:00,73.3,62.5,30.09,SSW,207,7.0,10.0,69,0.00,,,0.00,VWS V14.00,2013-04-24 17:39:00,
2013-04-24 13:44:00,73.4,63.0,30.09,NW,316,4.0,9.0,70,0.00,,,0.00,VWS V14.00,2013-04-24 17:44:00,
2013-04-24 13:49:00,73.5,63.1,30.09,SW,217,5.0,9.0,70,0.00,,,0.00,VWS V14.00,2013-04-24 17:49:00,
2013-04-24 13:54:00,73.5,63.1,30.09,West,273,11.0,12.0,70,0.00,,,0.00,VWS V14.00,2013-04-24 17:54:00,
2013-04-24 13:59:00,73.7,62.9,30.09,West,275,2.0,12.0,69,0.00,,,0.00,VWS V14.00,2013-04-24 17:59:00,
2013-04-24 14:05:00,73.7,63.3,30.09,SW,223,6.0,9.0,70,0.00,,,0.00,VWS V14.00,2013-04-24 18:05:00,
2013-04-24 14:10:00,73.9,63.5,30.09,SW,215,6.0,9.0,70,0.00,,,0.00,VWS V14.00,2013-04-24 18:10:00,
2013-04-24 14:15:00,74.0,63.6,30.09,WNW,301,3.0,12.0,70,0.00,,,0.00,VWS V14.00,2013-04-24 18:15:00,
2013-04-24 14:20:00,74.0,62.8,30.09,NW,309,6.0,16.0,68,0.00,,,0.00,VWS V14.00,2013-04-24 18:20:00,
2013-04-24 14:25:00,74.0,64.0,30.09,WNW,289,3.0,5.0,71,0.00,,,0.00,VWS V14.00,2013-04-24 18:25:00,
2013-04-24 14:30:00,74.0,63.2,30.09,NW,323,2.0,11.0,69,0.00,,,0.00,VWS V14.00,2013-04-24 18:30:00,
2013-04-24 14:35:00,73.8,64.2,30.09,SW,218,1.0,7.0,72,0.00,,,0.00,VWS V14.00,2013-04-24 18:35:00,
2013-04-24 14:41:00,73.7,62.9,30.09,WSW,245,5.0,11.0,69,0.00,,,0.00,VWS V14.00,2013-04-24 18:41:00,
2013-04-24 14:46:00,73.5,64.3,30.09,SW,221,8.0,11.0,73,0.00,,,0.00,VWS V14.00,2013-04-24 18:46:00,
2013-04-24 14:51:00,74.2,64.6,30.09,West,277,4.0,11.0,72,0.00,,,0.00,VWS V14.00,2013-04-24 18:51:00,
2013-04-24 14:54:00,74.2,63.4,30.09,SW,236,7.0,7.0,69,0.00,,,0.00,VWS V14.00,2013-04-24 18:54:00,
2013-04-24 14:56:00,74.2,63.4,30.09,SW,236,7.0,7.0,69,0.00,,,0.00,VWS V14.00,2013-04-24 18:56:00,
2013-04-24 15:01:00,74.2,63.4,30.09,SW,236,7.0,7.0,69,0.00,,,0.00,VWS V14.00,2013-04-24 19:01:00,